Time,TemperatureF,DewpointF,PressureIn,WindDirection,WindDirectionDegrees,WindSpeedMPH,WindSpeedGustMPH,Humidity,HourlyPrecipIn,Conditions,Clouds,dailyrainin,SolarRadiationWatts/m^2,SoftwareType,DateUTC
2013-01-19 00:12:00,62.0,17.0,-100.00,ENE,73,8.0,12.0,17,-99.99,,,0.00,0.000000,,2013-01-19 08:12:00,
2013-01-19 00:22:00,62.0,17.0,-100.00,ENE,73,8.0,12.0,17,-99.99,,,0.00,0.000000,,2013-01-19 08:22:00,
2013-01-19 00:51:00,63.0,15.0,-100.00,ENE,65,10.0,16.0,15,-99.99,,,0.00,0.000000,,2013-01-19 08:51:00,
2013-01-19 01:12:00,63.0,15.0,-100.00,ENE,65,10.0,16.0,15,-99.99,,,0.00,0.000000,,2013-01-19 09:12:00,
2013-01-19 01:42:00,63.0,15.0,-100.00,ENE,65,10.0,16.0,15,-99.99,,,0.00,0.000000,,2013-01-19 09:42:00,
2013-01-19 01:51:00,63.0,15.0,-100.00,East,82,7.0,15.0,15,0.00,,,0.00,0.000000,,2013-01-19 09:51:00,
2013-01-19 02:12:00,63.0,15.0,-100.00,East,82,7.0,15.0,15,0.00,,,0.00,0.000000,,2013-01-19 10:12:00,
2013-01-19 02:22:00,63.0,15.0,-100.00,East,82,7.0,15.0,15,0.00,,,0.00,0.000000,,2013-01-19 10:22:00,
2013-01-19 02:32:00,63.0,15.0,-100.00,East,82,7.0,15.0,15,0.00,,,0.00,0.000000,,2013-01-19 10:32:00,
2013-01-19 02:42:00,63.0,15.0,-100.00,East,82,7.0,15.0,15,0.00,,,0.00,0.000000,,2013-01-19 10:42:00,
2013-01-19 03:51:00,62.0,14.0,-100.00,East,79,8.0,14.0,15,0.00,,,0.00,0.000000,,2013-01-19 11:51:00,
2013-01-19 05:12:00,63.0,13.0,-100.00,East,83,8.0,14.0,14,0.00,,,0.00,0.000000,,2013-01-19 13:12:00,
2013-01-19 05:22:00,63.0,13.0,-100.00,East,83,8.0,14.0,14,0.00,,,0.00,0.000000,,2013-01-19 13:22:00,
2013-01-19 05:33:00,63.0,13.0,-100.00,East,83,8.0,14.0,14,0.00,,,0.00,0.000000,,2013-01-19 13:33:00,
2013-01-19 06:12:00,62.0,12.0,-100.00,ENE,64,8.0,14.0,14,0.00,,,0.00,0.000000,,2013-01-19 14:12:00,
2013-01-19 06:22:00,62.0,12.0,-100.00,ENE,64,8.0,14.0,14,0.00,,,0.00,0.000000,,2013-01-19 14:22:00,
2013-01-19 06:51:00,60.0,12.0,-100.00,ENE,73,10.0,15.0,15,0.00,,,0.00,0.000000,,2013-01-19 14:51:00,
2013-01-19 07:12:00,60.0,12.0,-100.00,ENE,73,10.0,15.0,15,0.00,,,0.00,0.000000,,2013-01-19 15:12:00,
2013-01-19 07:22:00,60.0,12.0,-100.00,ENE,73,10.0,15.0,15,0.00,,,0.00,0.000000,,2013-01-19 15:22:00,
2013-01-19 07:33:00,60.0,12.0,-100.00,ENE,73,10.0,15.0,15,0.00,,,0.00,0.000000,,2013-01-19 15:33:00,
2013-01-19 07:42:00,60.0,12.0,-100.00,ENE,73,10.0,15.0,15,0.00,,,0.00,0.000000,,2013-01-19 15:42:00,
2013-01-19 08:12:00,65.0,15.0,-100.00,ENE,62,6.0,13.0,14,0.00,,,-99.99,35.000000,,2013-01-19 16:12:00,
2013-01-19 08:23:00,65.0,15.0,-100.00,ENE,62,6.0,13.0,14,0.00,,,-99.99,35.000000,,2013-01-19 16:23:00,
2013-01-19 08:51:00,70.0,19.0,-100.00,ENE,78,6.0,9.0,14,0.00,,,0.00,215.000000,,2013-01-19 16:51:00,
2013-01-19 09:16:00,70.0,19.0,-100.00,ENE,78,6.0,9.0,14,0.00,,,0.00,215.000000,,2013-01-19 17:16:00,
2013-01-19 09:27:00,70.0,19.0,-100.00,ENE,78,6.0,9.0,14,0.00,,,0.00,215.000000,,2013-01-19 17:27:00,
2013-01-19 09:44:00,70.0,19.0,-100.00,ENE,78,6.0,9.0,14,0.00,,,0.00,215.000000,,2013-01-19 17:44:00,
2013-01-19 09:51:00,72.0,22.0,-100.00,WSW,242,5.0,7.0,15,0.00,,,-99.99,396.000000,,2013-01-19 17:51:00,
2013-01-19 10:13:00,72.0,22.0,-100.00,WSW,242,5.0,7.0,15,0.00,,,-99.99,396.000000,,2013-01-19 18:13:00,
2013-01-19 10:25:00,72.0,22.0,-100.00,WSW,242,5.0,7.0,15,0.00,,,-99.99,396.000000,,2013-01-19 18:25:00,
2013-01-19 10:34:00,72.0,22.0,-100.00,WSW,242,5.0,7.0,15,0.00,,,-99.99,396.000000,,2013-01-19 18:34:00,
2013-01-19 10:44:00,72.0,22.0,-100.00,WSW,242,5.0,7.0,15,0.00,,,-99.99,396.000000,,2013-01-19 18:44:00,
2013-01-19 10:51:00,76.0,23.0,-100.00,West,263,6.0,9.0,14,0.00,,,0.00,532.000000,,2013-01-19 18:51:00,
2013-01-19 11:27:00,76.0,23.0,-100.00,West,263,6.0,9.0,14,0.00,,,0.00,532.000000,,2013-01-19 19:27:00,
2013-01-19 11:37:00,76.0,23.0,-100.00,West,263,6.0,9.0,14,0.00,,,0.00,532.000000,,2013-01-19 19:37:00,
2013-01-19 11:44:00,76.0,23.0,-100.00,West,263,6.0,9.0,14,0.00,,,0.00,532.000000,,2013-01-19 19:44:00,
2013-01-19 11:51:00,76.0,27.0,-100.00,WSW,245,11.0,14.0,16,0.00,,,0.00,610.000000,,2013-01-19 19:51:00,
2013-01-19 12:24:00,76.0,27.0,-100.00,WSW,245,11.0,14.0,16,0.00,,,0.00,610.000000,,2013-01-19 20:24:00,
2013-01-19 12:35:00,76.0,27.0,-100.00,WSW,245,11.0,14.0,16,0.00,,,0.00,610.000000,,2013-01-19 20:35:00,
2013-01-19 12:44:00,76.0,27.0,-100.00,WSW,245,11.0,14.0,16,0.00,,,0.00,610.000000,,2013-01-19 20:44:00,
2013-01-19 12:51:00,76.0,25.0,-100.00,West,277,8.0,15.0,15,0.00,,,0.00,627.000000,,2013-01-19 20:51:00,
2013-01-19 13:14:00,76.0,25.0,-100.00,West,277,8.0,15.0,15,0.00,,,0.00,627.000000,,2013-01-19 21:14:00,
2013-01-19 13:24:00,76.0,25.0,-100.00,West,277,8.0,15.0,15,0.00,,,0.00,627.000000,,2013-01-19 21:24:00,
2013-01-19 13:38:00,76.0,25.0,-100.00,West,277,8.0,15.0,15,0.00,,,0.00,627.000000,,2013-01-19 21:38:00,
2013-01-19 13:46:00,76.0,25.0,-100.00,West,277,8.0,15.0,15,0.00,,,0.00,627.000000,,2013-01-19 21:46:00,
2013-01-19 14:15:00,79.0,22.0,-100.00,West,272,8.0,13.0,12,0.00,,,0.00,581.000000,,2013-01-19 22:15:00,
2013-01-19 14:25:00,79.0,22.0,-100.00,West,272,8.0,13.0,12,0.00,,,0.00,581.000000,,2013-01-19 22:25:00,
2013-01-19 14:34:00,79.0,22.0,-100.00,West,272,8.0,13.0,12,0.00,,,0.00,581.000000,,2013-01-19 22:34:00,
2013-01-19 14:45:00,79.0,22.0,-100.00,West,272,8.0,13.0,12,0.00,,,0.00,581.000000,,2013-01-19 22:45:00,
2013-01-19 15:14:00,79.0,24.0,-100.00,WSW,249,11.0,14.0,13,0.00,,,0.00,474.000000,,2013-01-19 23:14:00,
2013-01-19 15:24:00,79.0,24.0,-100.00,WSW,249,11.0,14.0,13,0.00,,,0.00,474.000000,,2013-01-19 23:24:00,
2013-01-19 15:33:00,79.0,24.0,-100.00,WSW,249,11.0,14.0,13,0.00,,,0.00,474.000000,,2013-01-19 23:33:00,
2013-01-19 15:44:00,79.0,24.0,-100.00,WSW,249,11.0,14.0,13,0.00,,,0.00,474.000000,,2013-01-19 23:44:00,
2013-01-19 16:14:00,77.0,22.0,-100.00,West,264,9.0,14.0,13,0.00,,,0.00,320.000000,,2013-01-20 00:14:00,
2013-01-19 16:24:00,77.0,22.0,-100.00,West,264,9.0,14.0,13,0.00,,,0.00,320.000000,,2013-01-20 00:24:00,
2013-01-19 16:34:00,77.0,22.0,-100.00,West,264,9.0,14.0,13,0.00,,,0.00,320.000000,,2013-01-20 00:34:00,
2013-01-19 16:44:00,77.0,22.0,-100.00,West,264,9.0,14.0,13,0.00,,,0.00,320.000000,,2013-01-20 00:44:00,
2013-01-19 16:51:00,74.0,22.0,-100.00,NW,306,6.0,11.0,14,0.00,,,0.00,133.000000,,2013-01-20 00:51:00,
2013-01-19 17:24:00,74.0,22.0,-100.00,NW,306,6.0,11.0,14,0.00,,,0.00,133.000000,,2013-01-20 01:24:00,
2013-01-19 17:34:00,74.0,22.0,-100.00,NW,306,6.0,11.0,14,0.00,,,0.00,133.000000,,2013-01-20 01:34:00,
2013-01-19 17:44:00,74.0,22.0,-100.00,NW,306,6.0,11.0,14,0.00,,,0.00,133.000000,,2013-01-20 01:44:00,
2013-01-19 17:51:00,69.0,19.0,-100.00,NNE,26,4.0,7.0,15,0.00,,,0.00,7.000000,,2013-01-20 01:51:00,
2013-01-19 18:14:00,69.0,19.0,-100.00,NNE,26,4.0,7.0,15,0.00,,,0.00,7.000000,,2013-01-20 02:14:00,
2013-01-19 18:25:00,69.0,19.0,-100.00,NNE,26,4.0,7.0,15,0.00,,,0.00,7.000000,,2013-01-20 02:25:00,
2013-01-19 18:34:00,69.0,19.0,-100.00,NNE,26,4.0,7.0,15,0.00,,,0.00,7.000000,,2013-01-20 02:34:00,
2013-01-19 18:43:00,69.0,19.0,-100.00,NNE,26,4.0,7.0,15,0.00,,,0.00,7.000000,,2013-01-20 02:43:00,
2013-01-19 18:51:00,66.0,17.0,-100.00,ENE,63,7.0,11.0,15,0.00,,,0.00,0.000000,,2013-01-20 02:51:00,
2013-01-19 19:14:00,66.0,17.0,-100.00,ENE,63,7.0,11.0,15,0.00,,,0.00,0.000000,,2013-01-20 03:14:00,
2013-01-19 19:24:00,66.0,17.0,-100.00,ENE,63,7.0,11.0,15,0.00,,,0.00,0.000000,,2013-01-20 03:24:00,
2013-01-19 19:35:00,66.0,17.0,-100.00,ENE,63,7.0,11.0,15,0.00,,,0.00,0.000000,,2013-01-20 03:35:00,
2013-01-19 19:44:00,66.0,17.0,-100.00,ENE,63,7.0,11.0,15,0.00,,,0.00,0.000000,,2013-01-20 03:44:00,
2013-01-19 20:24:00,67.0,11.0,-100.00,East,93,5.0,13.0,11,0.00,,,0.00,0.000000,,2013-01-20 04:24:00,
2013-01-19 20:51:00,63.0,13.0,-100.00,ENE,75,12.0,16.0,14,-99.99,,,0.00,0.000000,,2013-01-20 04:51:00,
2013-01-19 21:12:00,63.0,13.0,-100.00,ENE,75,12.0,16.0,14,-99.99,,,0.00,0.000000,,2013-01-20 05:12:00,
2013-01-19 21:22:00,63.0,13.0,-100.00,ENE,75,12.0,16.0,14,-99.99,,,0.00,0.000000,,2013-01-20 05:22:00,
2013-01-19 21:32:00,63.0,13.0,-100.00,ENE,75,12.0,16.0,14,-99.99,,,0.00,0.000000,,2013-01-20 05:32:00,
2013-01-19 21:42:00,63.0,13.0,-100.00,ENE,75,12.0,16.0,14,-99.99,,,0.00,0.000000,,2013-01-20 05:42:00,
2013-01-19 21:51:00,63.0,13.0,-100.00,ENE,74,10.0,17.0,14,0.00,,,0.00,0.000000,,2013-01-20 05:51:00,
2013-01-19 22:12:00,63.0,13.0,-100.00,ENE,74,10.0,17.0,14,0.00,,,0.00,0.000000,,2013-01-20 06:12:00,
2013-01-19 22:22:00,63.0,13.0,-100.00,ENE,74,10.0,17.0,14,0.00,,,0.00,0.000000,,2013-01-20 06:22:00,
2013-01-19 22:33:00,63.0,13.0,-100.00,ENE,74,10.0,17.0,14,0.00,,,0.00,0.000000,,2013-01-20 06:33:00,
2013-01-19 22:42:00,63.0,13.0,-100.00,ENE,74,10.0,17.0,14,0.00,,,0.00,0.000000,,2013-01-20 06:42:00,
2013-01-19 22:51:00,62.0,14.0,-100.00,East,84,7.0,14.0,15,0.00,,,0.00,0.000000,,2013-01-20 06:51:00,
2013-01-19 23:12:00,62.0,14.0,-100.00,East,84,7.0,14.0,15,0.00,,,0.00,0.000000,,2013-01-20 07:12:00,
2013-01-19 23:22:00,62.0,14.0,-100.00,East,84,7.0,14.0,15,0.00,,,0.00,0.000000,,2013-01-20 07:22:00,
2013-01-19 23:32:00,62.0,14.0,-100.00,East,84,7.0,14.0,15,0.00,,,0.00,0.000000,,2013-01-20 07:32:00,
2013-01-19 23:42:00,62.0,14.0,-100.00,East,84,7.0,14.0,15,0.00,,,0.00,0.000000,,2013-01-20 07:42:00,
2013-01-19 23:51:00,62.0,11.0,-100.00,ENE,64,10.0,14.0,13,0.00,,,0.00,0.000000,,2013-01-20 07:51:00,